Flag Weather past 2 weeks in Durban, South Africa

Now
66 °F

Mostly cloudy.


Feels Like: 66 °F
Forecast: 68 / 81 °F
Wind: 3 mph from South

Location: King Shaka International Airport

Current Time: Nov 1, 2014 at 11:02:24 AM

Latest Report: Nov 1, 2014 at 10:00 AM


Visibility: N/A

Pressure: 30.12 "Hg

Humidity: 78%

Dew point: 59 °F

Location of DurbanLocation

Historic Weather in Durban — Graph

°F

Durban temperature yesterday

Maximum temperature yesterday: 72 °F (at 11:00 AM)
Minimum temperature yesterday: 63 °F (at 6:00 PM)
Average temperature yesterday: 67 °F

Past Weeks' High & Low Weather Summary

 TemperatureHumidityPressure
High79 °F (Oct 28, 12:00 PM)94% (Oct 19, 3:00 AM)30.36 "Hg (Oct 19, 3:00 AM)
Low57 °F (Oct 19, 6:00 AM)46% (Oct 17, 9:00 AM)29.80 "Hg (Oct 29, 2:00 PM)
Average67 °F75%30.10 "Hg
* Reported Oct 17 9:00 AM — Nov 1 9:00 AM, Durban, Weather by CustomWeather, © 2014

Note: Actual official high and low records may vary slightly from our data, if they occured in-between our weather recording intervals... More about our weather records

Advertising

Durban weather history for previous 24 hours

 ConditionsComfort  
Time TempWeatherWind HumidityBarometerVisibility
9:00 AM
Nov 1
66 °FCloudy.2 mph73%30.15 "HgN/A
8:00 AM64 °FOvercast.5 mph78%30.15 "HgN/A
7:00 AM63 °FMostly cloudy.6 mph83%30.18 "HgN/A
6:00 AM63 °FMore clouds than sun.7 mph83%30.15 "HgN/A
5:00 AM63 °FMostly cloudy.6 mph83%30.12 "HgN/A
4:00 AM63 °FMostly cloudy.3 mph83%30.12 "HgN/A
3:00 AM61 °FMostly cloudy.7 mph94%30.15 "HgN/A
2:00 AM63 °FDrizzle. Mostly cloudy.8 mph88%30.18 "Hg6 mi
1:00 AM63 °FMostly cloudy.10 mph83%30.15 "HgN/A
12:00 AM63 °FMostly cloudy.6 mph88%30.18 "HgN/A
11:00 PM
Oct 31
64 °FOvercast.7 mph83%30.18 "HgN/A
10:00 PM63 °FOvercast.7 mph88%30.18 "HgN/A
9:00 PM63 °FMostly cloudy.13 mph88%30.18 "HgN/A
8:00 PM63 °FOvercast.10 mph88%30.18 "HgN/A
7:00 PM63 °FLight rain. Mostly cloudy.12 mph94%30.15 "Hg4 mi
6:00 PM63 °FLight rain. Overcast.14 mph94%30.15 "Hg2 mi
5:00 PM64 °FLight rain. Mostly cloudy.8 mph88%30.12 "Hg4 mi
4:00 PM66 °FLight rain. Mostly cloudy.13 mph83%30.09 "HgN/A
3:00 PM64 °FMostly cloudy.12 mph88%30.09 "HgN/A
2:00 PM66 °FLight rain. More clouds than sun.16 mph83%30.12 "Hg6 mi
1:00 PM70 °FMore clouds than sun.14 mph73%30.12 "HgN/A
12:00 PM72 °FMostly cloudy.13 mph69%30.12 "HgN/A
11:00 AM72 °FMostly cloudy.14 mph65%30.12 "HgN/A
Weather by CustomWeather, © 2014

See weather overviewHow to use our weather pages